Regional Weather Roundup
Issued by NWS Albany, NY

Home | Current Version | Previous Version | Graphics & Text | Print | Product List | Glossary Off
Versions: 1 2 3 4 5 6 7 8 9 10 11 12 13 14 15 16 17 18 19 20 21 22 23 24 25 26 27 28

000
ASUS41 KALY 181310
RWRALY

NEW YORK STATE HOURLY WEATHER ROUNDUP
NATIONAL WEATHER SERVICE ALBANY NY
900 AM EDT FRI APR 18 2014

NOTE: "FAIR" INDICATES FEW OR NO CLOUDS BELOW 12,000 FEET WITH NO
SIGNIFICANT WEATHER AND/OR NO OBSTRUCTIONS TO VISIBILITY.

NYZ032-033-038>043-046>054-057>066-NYZ062>081-181400-
EAST


CITY           SKY/WX    TMP DP  RH WIND       PRES   REMARKS
ALBANY         PTSUNNY   37  19  48 S12       30.53S WCI  29
GLENS FALLS    SUNNY    N/A N/A N/A SW7       30.52R
POUGHKEEPSIE   MOSUNNY   37  27  67 E5        30.56R WCI  33
NEWBURGH       MOSUNNY   36  28  75 SE6       30.56R WCI  31
MONTGOMERY     MOSUNNY   36  26  67 CALM      30.55R
WHITE PLAINS   CLOUDY    34  26  72 E6        30.54R WCI  29
ISLIP          CLOUDY    38  28  67 E3        30.54R
NEW YORK CITY  PTSUNNY   37  26  64 NE6       30.56S WCI  32
CENTRAL PARK   CLOUDY    38  27  64 SE6       30.58R WCI  33
$$

NYZ005>009-017-018-044>046-055-056-181400-
CENTRAL


CITY           SKY/WX    TMP DP  RH WIND       PRES   REMARKS
FULTON         PTSUNNY   43  26  51 SE8G18    30.38F
SYRACUSE       CLOUDY    43  26  51 SE9       30.41R
ROME           MOSUNNY   39  25  57 SE12      30.46S WCI  32
ELMIRA         PTSUNNY   40  27  59 S5        30.41F
BINGHAMTON     PTSUNNY   34  27  75 S12       30.41F WCI  25
MONTICELLO     CLOUDY    32  27  80 E6        30.50S WCI  26
$$

NYZ026>034-041>043-181400-
NORTH


CITY           SKY/WX    TMP DP  RH WIND       PRES   REMARKS
WATERTOWN      MOSUNNY   45  25  45 VRB6G18   30.37S
FORT DRUM      NOT AVBL
MASSENA        PTSUNNY   45  25  45 S9        30.40S
SARANAC LAKE   SUNNY     37  23  56 SW6       30.37R WCI  32
PLATTSBURGH    SUNNY     40  24  53 SE12      30.45S WCI  33
$$

NYZ001>004-010>016-019>021-181400-
WEST


CITY           SKY/WX    TMP DP  RH WIND       PRES   REMARKS
NIAGARA FALLS  CLOUDY    48  30  49 S17       30.28S
BUFFALO        PTSUNNY   51  30  44 S15       30.29S
DUNKIRK        PTSUNNY   50  29  44 S18G32    30.27F
JAMESTOWN      PTSUNNY   39  28  65 S10       30.31F WCI  32
WELLSVILLE     PTSUNNY   40  29  64 S7        30.34F
ROCHESTER      CLOUDY    47  31  53 S13       30.32F
PENN YAN       PTSUNNY   41  30  65 S13G21    30.36F
$$

             KEY
       WCI = WIND CHILL INDEX
       VSB = VISIBILITY
       HX  = HEAT INDEX
$$



USA.gov is the U.S. government's official web portal to all federal, state and local government web resources and services.